Tracking 25734 objects as of 28-May-2022
HD Live streaming from Space Station
objects crossing your sky now

NOAA 17 DEB

Track NOAA 17 DEB now!
10-day predictions


NORAD ID: 48166
Int'l Code: 2002-032G
Perigee: 794.5 km
Apogee: 823.2 km
Inclination: 98.7 °
Period: 100.9 minutes
Semi major axis: 7179 km
RCS: Unknown
Launch date: June 24, 2002
Source: United States (US)
Launch site: AIR FORCE WESTERN TEST RANGE (AFWTR)

Note: This is SATELLITE DEBRIS
aabbcc
Your satellite tracking list
Your tracking list is empty




NASA's NSSDC Master Catalog

Two Line Element Set (TLE):
1 48166U 02032G   22147.80329966  .00003419  00000-0  14200-2 0  9997
2 48166  98.7378  98.0610 0020000 275.8919  83.9982 14.27011633 62911
Source of the keplerian elements: AFSPC